When you browse on this site, cookies collect data to enhance your experience and personalize the content and advertising you see.
Visit our Privacy Policy to learn more. By continuing to use the site, you agree to this use of cookies and data.
  • en France
  • Liste des pays
  • À 7 jours
  • Température de l'eau
  • Carte météo
  • Widgets météo
  • user-avatar
    Se connecter

    Météo par heure à Porto Alegre

    Ce jour, 26 Août, Lundi

    Heure Température Précipitation Vent Pression Humidité
    00:00 +15°C° 0 mm 2 m/s 763 mmHg 84%
    01:00 +15°C° 0 mm 2 m/s 763 mmHg 85%
    02:00 +14°C° 0 mm 1 m/s 763 mmHg 86%
    03:00 +13°C° 0 mm 0 m/s 763 mmHg 87%
    04:00 +14°C° 0 mm 1 m/s 763 mmHg 87%
    05:00 +13°C° 0 mm 1 m/s 763 mmHg 86%
    06:00 +13°C° 0 mm 1 m/s 763 mmHg 85%
    07:00 +14°C° 0 mm 1 m/s 764 mmHg 79%
    08:00 +15°C° 0 mm 1 m/s 764 mmHg 72%
    09:00 +18°C° 0 mm 1 m/s 764 mmHg 65%
    10:00 +19°C° 0 mm 1 m/s 764 mmHg 59%
    11:00 +21°C° 0 mm 1 m/s 764 mmHg 53%
    12:00 +23°C° 0 mm 1 m/s 764 mmHg 47%
    13:00 +24°C° 0 mm 1 m/s 763 mmHg 46%
    14:00 +24°C° 0 mm 1 m/s 762 mmHg 46%
    15:00 +25°C° 0 mm 1 m/s 762 mmHg 46%
    16:00 +24°C° 0 mm 1 m/s 762 mmHg 50%
    17:00 +23°C° 0 mm 1 m/s 762 mmHg 54%
    18:00 +22°C° 0 mm 1 m/s 762 mmHg 58%
    19:00 +21°C° 0 mm 1 m/s 762 mmHg 61%
    20:00 +21°C° 0 mm 1 m/s 763 mmHg 64%
    21:00 +20°C° 0 mm 1 m/s 763 mmHg 67%
    22:00 +20°C° 0 mm 1 m/s 763 mmHg 69%
    23:00 +19°C° 0 mm 1 m/s 763 mmHg 72%

    Demain, 27 Août, Mardi

    Heure Température Précipitation Vent Pression Humidité
    00:00 +19°C° 0 mm 1 m/s 763 mmHg 74%
    01:00 +17°C° 0 mm 0 m/s 763 mmHg 76%
    02:00 +16°C° 0 mm 0 m/s 763 mmHg 78%
    03:00 +16°C° 0 mm 0 m/s 763 mmHg 79%
    04:00 +16°C° 0 mm 0 m/s 763 mmHg 80%
    05:00 +15°C° 0 mm 0 m/s 763 mmHg 81%
    06:00 +15°C° 0 mm 0 m/s 763 mmHg 82%
    07:00 +16°C° 0 mm 0 m/s 764 mmHg 77%
    08:00 +18°C° 0 mm 0 m/s 764 mmHg 73%
    09:00 +19°C° 0 mm 0 m/s 764 mmHg 69%
    10:00 +23°C° 0 mm 1 m/s 765 mmHg 63%
    11:00 +24°C° 0 mm 1 m/s 765 mmHg 57%
    12:00 +26°C° 0 mm 1 m/s 765 mmHg 52%
    13:00 +26°C° 0 mm 1 m/s 764 mmHg 52%
    14:00 +26°C° 0 mm 2 m/s 764 mmHg 52%
    15:00 +26°C° 0 mm 2 m/s 763 mmHg 52%
    16:00 +25°C° 0 mm 2 m/s 763 mmHg 58%
    17:00 +24°C° 0 mm 2 m/s 763 mmHg 63%
    18:00 +21°C° 0 mm 2 m/s 763 mmHg 69%
    19:00 +20°C° 0 mm 2 m/s 763 mmHg 71%
    20:00 +19°C° 0 mm 2 m/s 763 mmHg 73%
    21:00 +20°C° 0 mm 1 m/s 764 mmHg 75%
    22:00 +19°C° 0 mm 1 m/s 763 mmHg 77%
    23:00 +19°C° 0 mm 1 m/s 763 mmHg 78%

    Après-demain, 28 Août, Mercredi

    Heure Température Précipitation Vent Pression Humidité
    00:00 +19°C° 0 mm 1 m/s 763 mmHg 80%
    01:00 +18°C° 0 mm 1 m/s 763 mmHg 82%
    02:00 +16°C° 0 mm 0 m/s 762 mmHg 83%
    03:00 +16°C° 0 mm 0 m/s 762 mmHg 85%
    04:00 +16°C° 0 mm 0 m/s 762 mmHg 86%
    05:00 +15°C° 0 mm 0 m/s 762 mmHg 87%
    06:00 +15°C° 0 mm 0 m/s 762 mmHg 87%
    07:00 +17°C° 0 mm 0 m/s 762 mmHg 82%
    08:00 +18°C° 0 mm 0 m/s 762 mmHg 76%
    09:00 +21°C° 0 mm 1 m/s 762 mmHg 70%
    10:00 +23°C° 0 mm 1 m/s 762 mmHg 63%
    11:00 +25°C° 0 mm 1 m/s 762 mmHg 56%
    12:00 +27°C° 0 mm 1 m/s 762 mmHg 49%
    13:00 +28°C° 0 mm 1 m/s 761 mmHg 48%
    14:00 +28°C° 0 mm 1 m/s 760 mmHg 46%
    15:00 +29°C° 0 mm 1 m/s 759 mmHg 45%
    16:00 +27°C° 0 mm 2 m/s 759 mmHg 53%
    17:00 +26°C° 0 mm 2 m/s 759 mmHg 60%
    18:00 +24°C° 0 mm 2 m/s 758 mmHg 68%
    19:00 +23°C° 0 mm 2 m/s 759 mmHg 70%
    20:00 +21°C° 0 mm 2 m/s 759 mmHg 73%
    21:00 +21°C° 0 mm 1 m/s 759 mmHg 76%
    22:00 +21°C° 0 mm 1 m/s 759 mmHg 77%
    23:00 +21°C° 0 mm 1 m/s 759 mmHg 78%

    29 Août, Jeudi

    Heure Température Précipitation Vent Pression Humidité
    00:00 +21°C° 0 mm 1 m/s 758 mmHg 79%
    01:00 +20°C° 0 mm 1 m/s 758 mmHg 79%
    02:00 +20°C° 0 mm 1 m/s 758 mmHg 79%
    03:00 +20°C° 0 mm 1 m/s 757 mmHg 78%
    04:00 +20°C° 0 mm 1 m/s 757 mmHg 79%
    05:00 +19°C° 0 mm 1 m/s 757 mmHg 79%
    06:00 +19°C° 0 mm 1 m/s 757 mmHg 79%
    07:00 +20°C° 0 mm 1 m/s 758 mmHg 73%
    08:00 +21°C° 0 mm 2 m/s 758 mmHg 67%
    09:00 +23°C° 0 mm 2 m/s 758 mmHg 62%
    10:00 +25°C° 0 mm 2 m/s 757 mmHg 55%
    11:00 +27°C° 0 mm 2 m/s 757 mmHg 49%
    12:00 +30°C° 0 mm 2 m/s 757 mmHg 43%
    13:00 +31°C° 0 mm 2 m/s 756 mmHg 41%
    14:00 +32°C° 0 mm 2 m/s 756 mmHg 38%
    15:00 +32°C° 0 mm 2 m/s 755 mmHg 35%
    16:00 +31°C° 0 mm 2 m/s 755 mmHg 40%
    17:00 +29°C° 0 mm 1 m/s 755 mmHg 45%
    18:00 +28°C° 0 mm 1 m/s 755 mmHg 51%
    19:00 +24°C° 0 mm 0 m/s 756 mmHg 54%
    20:00 +23°C° 0 mm 0 m/s 756 mmHg 58%
    21:00 +22°C° 0 mm 0 m/s 757 mmHg 62%
    22:00 +22°C° 0 mm 0 m/s 757 mmHg 63%
    23:00 +23°C° 0 mm 1 m/s 756 mmHg 64%

    30 Août, Vendredi

    Heure Température Précipitation Vent Pression Humidité
    00:00 +23°C° 0 mm 1 m/s 756 mmHg 65%
    01:00 +22°C° 0 mm 1 m/s 756 mmHg 66%
    02:00 +22°C° 0 mm 1 m/s 756 mmHg 68%
    03:00 +22°C° 0 mm 1 m/s 756 mmHg 69%
    04:00 +21°C° 0 mm 1 m/s 756 mmHg 74%
    05:00 +19°C° 0 mm 2 m/s 757 mmHg 80%
    06:00 +18°C° 0 mm 3 m/s 757 mmHg 85%
    07:00 +19°C° 0 mm 3 m/s 757 mmHg 85%
    08:00 +19°C° 0 mm 3 m/s 758 mmHg 84%
    09:00 +19°C° 0 mm 4 m/s 758 mmHg 83%
    10:00 +20°C° 0 mm 4 m/s 758 mmHg 79%
    11:00 +21°C° 0 mm 3 m/s 758 mmHg 75%
    12:00 +22°C° 0 mm 3 m/s 757 mmHg 71%
    13:00 +24°C° 0 mm 3 m/s 757 mmHg 70%
    14:00 +23°C° 0 mm 4 m/s 756 mmHg 69%
    15:00 +25°C° 0 mm 4 m/s 756 mmHg 68%
    16:00 +22°C° 0 mm 4 m/s 756 mmHg 73%
    17:00 +21°C° 0 mm 4 m/s 757 mmHg 78%
    18:00 +19°C° 0 mm 5 m/s 757 mmHg 83%
    19:00 +19°C° 0 mm 4 m/s 757 mmHg 84%
    20:00 +19°C° 0 mm 4 m/s 757 mmHg 84%
    21:00 +19°C° 0 mm 4 m/s 757 mmHg 85%
    22:00 +19°C° 0 mm 3 m/s 757 mmHg 86%
    23:00 +19°C° 0 mm 3 m/s 757 mmHg 87%

    31 Août, Samedi

    Heure Température Précipitation Vent Pression Humidité
    00:00 +19°C° 0 mm 3 m/s 756 mmHg 88%
    01:00 +19°C° 0.4 mm 3 m/s 756 mmHg 89%
    02:00 +19°C° 0.4 mm 4 m/s 755 mmHg 90%
    03:00 +19°C° 0.4 mm 4 m/s 755 mmHg 91%
    04:00 +18°C° 0.2 mm 4 m/s 755 mmHg 92%
    05:00 +18°C° 0.2 mm 3 m/s 755 mmHg 92%
    06:00 +18°C° 0.2 mm 3 m/s 755 mmHg 93%
    07:00 +18°C° 0.3 mm 3 m/s 755 mmHg 92%
    08:00 +18°C° 0.3 mm 3 m/s 756 mmHg 92%
    09:00 +18°C° 0.3 mm 3 m/s 756 mmHg 91%
    10:00 +18°C° 0.3 mm 2 m/s 756 mmHg 90%
    11:00 +19°C° 0.3 mm 2 m/s 756 mmHg 89%
    12:00 +19°C° 0.3 mm 2 m/s 756 mmHg 88%
    13:00 +19°C° 2 mm 2 m/s 756 mmHg 90%
    14:00 +18°C° 2 mm 2 m/s 756 mmHg 91%
    15:00 +18°C° 2 mm 3 m/s 755 mmHg 93%
    16:00 +17°C° 4.7 mm 3 m/s 756 mmHg 93%
    17:00 +17°C° 4.7 mm 4 m/s 756 mmHg 94%
    18:00 +17°C° 4.7 mm 4 m/s 756 mmHg 94%
    19:00 +17°C° 1.7 mm 4 m/s 757 mmHg 93%
    20:00 +15°C° 1.7 mm 4 m/s 757 mmHg 92%
    21:00 +15°C° 1.7 mm 4 m/s 758 mmHg 90%
    22:00 +15°C° 0.4 mm 4 m/s 758 mmHg 90%
    23:00 +15°C° 0.4 mm 4 m/s 758 mmHg 90%
    Voir plus